Effingham, IL

7:11 AM CDT on May 25, 2018 (GMT -0500)
Effingham

Weather History for K1H2 - January, 2013

Change the Weather History Date:

Monday, January 21, 2013

  Actual Average (KMTO) Record (KMTO)
Temperature  
Mean Temperature 18 °F -  
Max Temperature 23 °F 34 °F 65 °F (1986)
Min Temperature 12 °F 19 °F -14 °F (1984)
Degree Days  
Heating Degree Days 47    
Moisture  
Dew Point 6 °F    
Average Humidity 60    
Maximum Humidity 80    
Minimum Humidity 43    
Precipitation  
Precipitation 0.00 in - - ()
Sea Level Pressure  
Sea Level Pressure 30.29 in    
Wind  
Wind Speed 13 mph (WNW)    
Max Wind Speed 21 mph    
Max Gust Speed 28 mph    
Visibility 10 miles    
Events      
Averages and records for this station are not official NWS values.
T = Trace of Precipitation, MM = Missing Value Source: NWS Daily Summary

Daily Weather History Graph

Daily Weather History Graph

Search for Another Location

Airport or City:

Astronomy

Jan. 21, 2013 Rise Set
Actual Time 7:08 AM CST 5:02 PM CST
Civil Twilight 6:39 AM CST 5:31 PM CST
Nautical Twilight 6:07 AM CST 6:04 PM CST
Astronomical Twilight 5:35 AM CST 6:36 PM CST
Moon 12:42 PM CST (1/21) 2:36 AM CST (1/21)
Length of Visible Light 10h 51m
Length of Day
9h 54m
Waxing Gibbous, 75% of the Moon is Illuminated
Jan 21
Waxing Gibbous
Jan 26
Full
Feb 3
Last Quarter
Feb 10
New
Feb 17
First Quarter

Hourly Weather History & Observations

Time (CST) Temp. Windchill Dew Point Humidity Pressure Visibility Wind Dir Wind Speed Gust Speed Precip Events Conditions
12:14 AM 23.0 °F 11.7 °F 15.8 °F 74% 30.24 in 10.0 mi NW 11.5 mph - N/A   Overcast
12:15 AM 23.5 °F 12.4 °F 16.2 °F 73% 30.24 in 10.0 mi NW 11.5 mph - N/A   Overcast
12:35 AM 23.4 °F 11.6 °F 16.7 °F 76% 30.24 in 10.0 mi NW 12.7 mph 17.3 mph N/A   Overcast
12:55 AM 23.0 °F 11.1 °F 15.4 °F 73% 30.24 in 10.0 mi NNW 12.7 mph - N/A   Overcast
1:12 AM 23.0 °F 10.6 °F 15.8 °F 74% 30.24 in 10.0 mi NW 13.8 mph - N/A   Overcast
1:15 AM 22.8 °F 9.9 °F 15.3 °F 73% 30.24 in 10.0 mi WNW 15.0 mph - N/A   Overcast
1:32 AM 23.0 °F 12.4 °F 15.8 °F 74% 30.25 in 10.0 mi WNW 10.4 mph - N/A   Overcast
1:35 AM 22.8 °F 12.2 °F 15.8 °F 74% 30.25 in 10.0 mi NW 10.4 mph - N/A   Overcast
1:54 AM 23.0 °F 12.4 °F 15.8 °F 74% 30.25 in 10.0 mi WNW 10.4 mph - N/A   Overcast
1:55 AM 22.6 °F 11.9 °F 15.8 °F 75% 30.25 in 10.0 mi WNW 10.4 mph - N/A   Overcast
2:12 AM 21.2 °F 10.1 °F 15.8 °F 80% 30.25 in 10.0 mi WNW 10.4 mph - N/A   Overcast
2:15 AM 22.6 °F 11.3 °F 15.8 °F 75% 30.25 in 10.0 mi WNW 11.5 mph - N/A   Overcast
2:32 AM 23.0 °F 10.6 °F 15.8 °F 74% 30.25 in 10.0 mi WNW 13.8 mph - N/A   Overcast
2:35 AM 22.8 °F 10.9 °F 14.9 °F 72% 30.25 in 10.0 mi WNW 12.7 mph - N/A   Overcast
2:55 AM 22.1 °F 10.6 °F 13.8 °F 70% 30.25 in 10.0 mi WNW 11.5 mph - N/A   Overcast
3:12 AM 21.2 °F 8.9 °F 14.0 °F 74% 30.25 in 10.0 mi WNW 12.7 mph - N/A   Overcast
3:15 AM 21.7 °F 10.2 °F 14.2 °F 73% 30.25 in 10.0 mi WNW 11.5 mph - N/A   Overcast
3:32 AM 21.2 °F 9.5 °F 14.0 °F 74% 30.24 in 10.0 mi NW 11.5 mph - N/A   Overcast
3:35 AM 21.6 °F 9.9 °F 14.0 °F 73% 30.24 in 10.0 mi NW 11.5 mph - N/A   Overcast
3:52 AM 21.2 °F 8.9 °F 12.2 °F 68% 30.25 in 10.0 mi West 12.7 mph - N/A   Mostly Cloudy
3:55 AM 20.7 °F 7.1 °F 13.1 °F 73% 30.25 in 10.0 mi WNW 15.0 mph - N/A   Mostly Cloudy
4:12 AM 19.4 °F 6.0 °F 12.2 °F 74% 30.25 in 10.0 mi WNW 13.8 mph - N/A   Scattered Clouds
4:15 AM 19.9 °F 7.9 °F 13.1 °F 75% 30.25 in 10.0 mi WNW 11.5 mph - N/A   Scattered Clouds
4:32 AM 19.4 °F 5.5 °F 12.2 °F 74% 30.26 in 10.0 mi WNW 15.0 mph - N/A   Mostly Cloudy
4:35 AM 19.9 °F 5.7 °F 12.7 °F 74% 30.26 in 10.0 mi WNW 16.1 mph 20.7 mph N/A   Mostly Cloudy
4:52 AM 19.4 °F 5.5 °F 12.2 °F 74% 30.26 in 10.0 mi WNW 15.0 mph - N/A   Mostly Cloudy
4:55 AM 19.9 °F 6.2 °F 12.4 °F 72% 30.26 in 10.0 mi West 15.0 mph - N/A   Mostly Cloudy
5:12 AM 17.6 °F 3.7 °F 10.4 °F 73% 30.26 in 10.0 mi WNW 13.8 mph - N/A   Scattered Clouds
5:15 AM 18.5 °F 6.1 °F 10.4 °F 71% 30.26 in 10.0 mi WNW 11.5 mph - N/A   Scattered Clouds
5:32 AM 17.6 °F 5.0 °F 10.4 °F 73% 30.26 in 10.0 mi WNW 11.5 mph - N/A   Clear
5:35 AM 18.3 °F 5.9 °F 11.3 °F 74% 30.26 in 10.0 mi WNW 11.5 mph - N/A   Clear
5:54 AM 17.6 °F 5.0 °F 12.2 °F 79% 30.26 in 10.0 mi WNW 11.5 mph - N/A   Scattered Clouds
5:55 AM 18.1 °F 6.3 °F 11.8 °F 76% 30.26 in 10.0 mi WNW 10.4 mph - N/A   Scattered Clouds
6:12 AM 17.6 °F 3.2 °F 10.4 °F 73% 30.27 in 10.0 mi WNW 15.0 mph 20.7 mph N/A   Scattered Clouds
6:15 AM 18.5 °F 4.9 °F 10.8 °F 72% 30.27 in 10.0 mi WNW 13.8 mph 20.7 mph N/A   Scattered Clouds
6:32 AM 17.6 °F 3.2 °F 10.4 °F 73% 30.26 in 10.0 mi West 15.0 mph 23.0 mph N/A   Mostly Cloudy
6:35 AM 18.5 °F 3.8 °F 10.2 °F 70% 30.26 in 10.0 mi West 16.1 mph 23.0 mph N/A   Mostly Cloudy
6:52 AM 17.6 °F 1.7 °F 8.6 °F 68% 30.26 in 10.0 mi WNW 18.4 mph 23.0 mph N/A   Mostly Cloudy
6:55 AM 18.5 °F 2.4 °F 9.0 °F 66% 30.26 in 10.0 mi West 19.6 mph 27.6 mph N/A   Mostly Cloudy
7:14 AM 17.6 °F 2.2 °F 6.8 °F 63% 30.26 in 10.0 mi WNW 17.3 mph 23.0 mph N/A   Scattered Clouds
7:15 AM 18.5 °F 3.8 °F 6.4 °F 59% 30.26 in 10.0 mi WNW 16.1 mph 23.0 mph N/A   Scattered Clouds
7:35 AM 18.0 °F 3.1 °F 6.1 °F 60% 30.27 in 10.0 mi WNW 16.1 mph 26.5 mph N/A   Clear
7:55 AM 17.2 °F 1.2 °F 7.0 °F 64% 30.27 in 10.0 mi WNW 18.4 mph 24.2 mph N/A   Clear
8:15 AM 17.8 °F 2.9 °F 7.5 °F 64% 30.27 in 10.0 mi WNW 16.1 mph - N/A   Scattered Clouds
8:35 AM 18.0 °F 2.6 °F 6.3 °F 60% 30.28 in 10.0 mi WNW 17.3 mph 24.2 mph N/A   Scattered Clouds
8:55 AM 17.6 °F 1.7 °F 6.3 °F 61% 30.28 in 10.0 mi West 18.4 mph - N/A   Scattered Clouds
9:15 AM 18.9 °F 4.3 °F 7.5 °F 61% 30.29 in 10.0 mi WNW 16.1 mph 21.9 mph N/A   Mostly Cloudy
9:35 AM 18.3 °F 3.1 °F 4.1 °F 54% 30.30 in 10.0 mi WNW 17.3 mph 27.6 mph N/A   Scattered Clouds
9:55 AM 18.9 °F 3.3 °F 1.2 °F 46% 30.30 in 10.0 mi WNW 18.4 mph - N/A   Scattered Clouds
10:15 AM 18.5 °F 2.9 °F 1.6 °F 48% 30.30 in 10.0 mi WNW 18.4 mph 23.0 mph N/A   Clear
10:35 AM 18.5 °F 3.8 °F 0.3 °F 45% 30.30 in 10.0 mi WNW 16.1 mph 25.3 mph N/A   Clear
10:55 AM 18.9 °F 3.3 °F 2.5 °F 49% 30.30 in 10.0 mi WNW 18.4 mph 21.9 mph N/A   Clear
11:15 AM 18.3 °F 3.1 °F 2.1 °F 49% 30.31 in 10.0 mi NW 17.3 mph 26.5 mph N/A   Scattered Clouds
11:35 AM 19.4 °F 4.5 °F 1.4 °F 46% 30.30 in 10.0 mi WNW 17.3 mph 21.9 mph N/A   Scattered Clouds
11:55 AM 19.2 °F 4.3 °F 1.8 °F 47% 30.29 in 10.0 mi WNW 17.3 mph 26.5 mph N/A   Scattered Clouds
12:15 PM 19.9 °F 3.9 °F 1.9 °F 46% 30.29 in 10.0 mi WNW 20.7 mph 26.5 mph N/A   Clear
12:35 PM 19.4 °F 5.5 °F 2.3 °F 48% 30.29 in 10.0 mi West 15.0 mph 24.2 mph N/A   Clear
12:55 PM 19.9 °F 5.2 °F 2.3 °F 46% 30.28 in 10.0 mi WNW 17.3 mph - N/A   Clear
1:15 PM 20.3 °F 4.8 °F 2.8 °F 47% 30.28 in 10.0 mi West 19.6 mph 26.5 mph N/A   Scattered Clouds
1:35 PM 19.8 °F 4.1 °F 2.1 °F 46% 30.28 in 10.0 mi WNW 19.6 mph 26.5 mph N/A   Scattered Clouds
1:55 PM 19.6 °F 4.7 °F 1.2 °F 45% 30.29 in 10.0 mi WNW 17.3 mph 24.2 mph N/A   Clear
2:15 PM 19.9 °F 5.7 °F 1.4 °F 45% 30.30 in 10.0 mi West 16.1 mph 26.5 mph N/A   Clear
2:35 PM 19.9 °F 6.2 °F 1.0 °F 44% 30.30 in 10.0 mi West 15.0 mph 23.0 mph N/A   Scattered Clouds
2:55 PM 18.7 °F 3.1 °F -0.4 °F 43% 30.30 in 10.0 mi West 18.4 mph 25.3 mph N/A   Scattered Clouds
3:15 PM 18.3 °F 4.1 °F -0.0 °F 45% 30.31 in 10.0 mi WNW 15.0 mph 23.0 mph N/A   Clear
3:35 PM 18.5 °F 6.1 °F 1.2 °F 47% 30.31 in 10.0 mi WNW 11.5 mph 19.6 mph N/A   Clear
3:55 PM 17.8 °F 1.9 °F 0.7 °F 47% 30.31 in 10.0 mi West 18.4 mph 24.2 mph N/A   Clear
4:15 PM 17.4 °F 2.4 °F 0.5 °F 48% 30.31 in 10.0 mi WNW 16.1 mph 19.6 mph N/A   Clear
4:35 PM 16.7 °F 2.0 °F 0.1 °F 48% 30.31 in 10.0 mi West 15.0 mph 18.4 mph N/A   Clear
4:55 PM 16.7 °F 2.6 °F -0.6 °F 47% 30.31 in 10.0 mi WNW 13.8 mph 18.4 mph N/A   Clear
5:15 PM 16.3 °F 3.4 °F 0.1 °F 49% 30.31 in 10.0 mi WNW 11.5 mph - N/A   Clear
5:35 PM 16.2 °F 3.2 °F -0.4 °F 48% 30.33 in 10.0 mi WNW 11.5 mph - N/A   Clear
5:55 PM 15.4 °F 1.0 °F -0.2 °F 50% 30.33 in 10.0 mi West 13.8 mph - N/A   Clear
6:15 PM 15.6 °F 1.8 °F -0.4 °F 49% 30.33 in 10.0 mi WNW 12.7 mph 19.6 mph N/A   Scattered Clouds
6:35 PM 15.8 °F 2.1 °F -2.2 °F 45% 30.33 in 10.0 mi WNW 12.7 mph - N/A   Overcast
6:55 PM 15.8 °F 0.3 °F -3.1 °F 43% 30.34 in 10.0 mi WNW 16.1 mph 23.0 mph N/A   Mostly Cloudy
7:15 PM 15.3 °F 1.4 °F -2.4 °F 46% 30.33 in 10.0 mi WNW 12.7 mph 18.4 mph N/A   Scattered Clouds
7:35 PM 14.9 °F 0.9 °F -2.4 °F 46% 30.34 in 10.0 mi WNW 12.7 mph - N/A   Scattered Clouds
7:55 PM 14.7 °F 1.4 °F -0.9 °F 50% 30.34 in 10.0 mi WNW 11.5 mph 16.1 mph N/A   Clear
8:15 PM 14.5 °F 1.9 °F -1.8 °F 48% 30.34 in 10.0 mi WNW 10.4 mph - N/A   Clear
8:35 PM 14.4 °F 2.4 °F -0.9 °F 51% 30.35 in 10.0 mi WNW 9.2 mph - N/A   Clear
8:55 PM 14.0 °F 2.0 °F -1.1 °F 51% 30.35 in 10.0 mi WNW 9.2 mph - N/A   Clear
9:15 PM 14.0 °F 1.2 °F -0.4 °F 53% 30.35 in 10.0 mi WNW 10.4 mph - N/A   Clear
9:35 PM 14.0 °F 1.2 °F -0.9 °F 52% 30.35 in 10.0 mi WNW 10.4 mph - N/A   Clear
9:55 PM 13.8 °F 0.2 °F -1.5 °F 51% 30.36 in 10.0 mi WNW 11.5 mph - N/A   Clear
10:15 PM 13.8 °F 0.2 °F -0.9 °F 52% 30.36 in 10.0 mi WNW 11.5 mph - N/A   Clear
10:35 PM 13.6 °F 0.7 °F -0.8 °F 53% 30.36 in 10.0 mi WNW 10.4 mph - N/A   Clear
10:55 PM 13.3 °F -0.5 °F -0.4 °F 55% 30.36 in 10.0 mi WNW 11.5 mph - N/A   Clear
11:15 PM 13.1 °F 0.1 °F -1.1 °F 53% 30.36 in 10.0 mi WNW 10.4 mph - N/A   Clear
11:35 PM 13.1 °F 1.8 °F -0.4 °F 55% 30.36 in 10.0 mi WNW 8.1 mph - N/A   Clear
11:55 PM 12.9 °F 1.6 °F -0.4 °F 55% 30.36 in 10.0 mi NW 8.1 mph - N/A   Clear